Weather History for Wink, TX

Change the Weather History Date:

Saturday, March 24, 2012

  Actual Average Record
Temperature  
Mean Temperature 68 °F -  
Max Temperature 93 °F 74 °F 93 °F (1988)
Min Temperature 44 °F 38 °F 26 °F (2013)
Cooling Degree Days 2    
Growing Degree Days 18 (Base 50)    
Moisture  
Dew Point 30 °F    
Average Humidity 33    
Maximum Humidity 65    
Minimum Humidity 7    
Precipitation  
Precipitation 0.00 in - - ()
Sea Level Pressure  
Sea Level Pressure 29.89 in    
Wind  
Wind Speed 4 mph (SE)    
Max Wind Speed 12 mph    
Max Gust Speed 17 mph    
Visibility 10 miles    
Events      
Averages and records for this station are not official NWS values.
T = Trace of Precipitation, MM = Missing Value Source: NWS Daily Summary

Daily Weather History Graph

Daily Weather History Graph

Search for Another Location

Airport:

Trip Planner

Search our weather history database for the weather conditions in past years. The results will help you decide how hot, cold, wet, or windy it might be!

Date:

Astronomy

Mar. 24, 2012 Rise Set
Actual Time 7:50 AM CDT 8:07 PM CDT
Civil Twilight 7:26 AM CDT 8:31 PM CDT
Nautical Twilight 6:57 AM CDT 9:00 PM CDT
Astronomical Twilight 6:29 AM CDT 9:29 PM CDT
Moon 8:41 AM CDT (3/24) 10:16 PM CDT (3/24)
Length of Visible Light 13h 05m
Length of Day
12h 16m
Waxing Crescent, 4% of the Moon is Illuminated
Mar 24
Waxing Crescent
Mar 30
First Quarter
Apr 6
Full
Apr 13
Last Quarter
Apr 21
New

Hourly Weather History & Observations

Time (CDT) Temp. Windchill Dew Point Humidity Pressure Visibility Wind Dir Wind Speed Gust Speed Precip Events Conditions
12:53 AM 54.0 °F - 27.0 °F 35% 29.90 in 10.0 mi Calm Calm - N/A   Clear
1:53 AM 52.0 °F - 30.0 °F 43% 29.89 in 10.0 mi NNE 5.8 mph - N/A   Clear
2:53 AM 52.0 °F - 32.0 °F 47% 29.88 in 10.0 mi East 3.5 mph - N/A   Clear
3:53 AM 51.1 °F - 35.1 °F 54% 29.87 in 10.0 mi East 3.5 mph - N/A   Clear
4:53 AM 48.0 °F - 33.1 °F 56% 29.86 in 10.0 mi ESE 5.8 mph - N/A   Clear
5:53 AM 52.0 °F - 37.0 °F 57% 29.86 in 10.0 mi East 5.8 mph - N/A   Clear
6:53 AM 44.6 °F - 32.0 °F 61% 29.99 in 10.0 mi Calm Calm - N/A   Clear
7:53 AM 45.0 °F 42.6 °F 34.0 °F 65% 29.93 in 10.0 mi North 4.6 mph - N/A   Clear
8:53 AM 52.0 °F - 37.0 °F 57% 29.95 in 10.0 mi Calm Calm - N/A   Clear
9:53 AM 64.0 °F - 46.0 °F 52% 29.94 in 10.0 mi SE 4.6 mph - N/A   Clear
10:53 AM 71.1 °F - 44.1 °F 38% 29.94 in 10.0 mi South 3.5 mph - N/A   Clear
11:53 AM 75.0 °F - 41.0 °F 29% 29.94 in 10.0 mi Calm Calm - N/A   Clear
12:53 PM 82.9 °F - 34.0 °F 17% 29.91 in 10.0 mi Calm Calm - N/A   Clear
1:53 PM 88.0 °F - 23.0 °F 9% 29.88 in 10.0 mi SSW 6.9 mph - N/A   Clear
2:53 PM 91.0 °F - 21.0 °F 8% 29.85 in 10.0 mi SSW 11.5 mph 17.3 mph N/A   Clear
3:53 PM 91.9 °F - 18.0 °F 7% 29.83 in 10.0 mi West 6.9 mph 16.1 mph N/A   Clear
4:53 PM - - - N/A% 29.93 in 10.0 mi West 9.2 mph - N/A   Clear
5:53 PM - - - N/A% 29.92 in 10.0 mi SSW 8.1 mph - N/A   Clear
6:53 PM - - - N/A% 29.91 in 10.0 mi Calm Calm - N/A   Clear
7:53 PM 86.0 °F - 19.0 °F 8% 29.81 in 10.0 mi SE 5.8 mph - N/A   Clear
8:53 PM 80.1 °F - 21.0 °F 11% 29.83 in 10.0 mi ESE 4.6 mph - N/A   Clear
9:53 PM 73.0 °F - 21.0 °F 14% 29.84 in 10.0 mi ESE 6.9 mph - N/A   Clear
10:53 PM 72.0 °F - 21.9 °F 15% 29.85 in 10.0 mi ESE 9.2 mph - N/A   Clear
11:53 PM 70.0 °F - 26.1 °F 19% 29.85 in 10.0 mi SE 9.2 mph - N/A   Clear